Location: Forst
(46.9333°N, 15.4333°E)
Time: 16:26:10
(UTC+00:00)

PSLV R/B - Pass Details

Date: 01 December 2020
Orbit: 568 x 597 km, 98.2° (Epoch: 27 January)

Event Time Altitude Azimuth Distance (km) Brightness Sun altitude
Exits shadow 17:40:57 72° 247° (WSW) 604 4.0 -24.8°
Drops below altitude 10° 17:44:43 10° 201° (SSW) 1,866 6.8 -25.4°
Sets 17:46:51 0° 200° (SSW) 2,761 7.7 -25.8°
